Regional Weather Roundup
Issued by NWS

Home | Current Version | Previous Version | Text Only | Print | Product List | Glossary On
Versions: 1 2 3 4 5 6 7 8 9 10 11 12 13 14 15 16 17 18 19 20 21 22 23 24 25 26 27 28 29 30 31 32 33 34 35 36 37 38 39 40 41 42 43 44 45 46 47 48 49 50
611
ASUS43 KMKX 181621
RWRWI

WISCONSIN REGIONAL WEATHER ROUNDUP
NATIONAL WEATHER SERVICE MILWAUKEE/SULLIVAN WI
1000 AM CST WED JAN 18 2017

NOTE: "FAIR" INDICATES FEW OR NO CLOUDS BELOW 12,000 FEET WITH NO
SIGNIFICANT WEATHER AND/OR OBSTRUCTIONS TO VISIBILITY.

WIZ001-002-006>008-014>016-023>028-181700-
NORTHWEST WISCONSIN

CITY           SKY/WX    TMP DP  RH WIND       PRES   REMARKS
SUPERIOR ARPT  CLOUDY    32  26  78 SW15      29.82F WCI  21
ASHLAND        SUNNY     34  26  72 SW15G26   29.83F WCI  24
HAYWARD        CLOUDY    31  25  78 SW12      29.87R WCI  22
SIREN          CLOUDY    34  27  76 SW12      29.87F WCI  25
CUMBERLAND     CLOUDY    30  27  86 SW9       29.88F WCI  22
RICE LAKE      CLOUDY    30  26  86 S8        29.90F WCI  22
CHETEK         NOT AVBL
LADYSMITH      CLOUDY    31  28  90 S8        29.92F WCI  23
EAU CLAIRE     CLOUDY    30  26  85 S10       29.93S WCI  21
MENOMONIE      CLOUDY    31  27  84 MISG      29.93F
NEW RICHMOND   CLOUDY    32  28  82 SW13G18   29.90S WCI  23
OSCEOLA        CLOUDY    31  27  84 S8        29.92F WCI  24
$$

WIZ003>005-009-010-017-018-181700-
NORTH CENTRAL WISCONSIN

CITY           SKY/WX    TMP DP  RH WIND       PRES   REMARKS
MANITOWISH WTR SUNNY     29  29 100 SW12      29.84F WCI  19
ARBOR VITAE    SUNNY     32  31  95 SW13      29.86F WCI  22
WOODRUFF       SUNNY     32  31  95 SW13      29.86F WCI  22
RHINELANDER    MOSUNNY   31  29  92 SW14      29.90S WCI  21
EAGLE RIVER    SUNNY     31  29  94 SW16      29.86S WCI  20
LAND O LAKES   SUNNY     31  30  94 SW10G17   29.86R WCI  23
PHILLIPS       CLOUDY    29  29 100 SW9       29.89R WCI  20
TOMAHAWK       CLOUDY    30  28  90 SW3       29.92S
MEDFORD        CLOUDY    28  27  94 SW8       29.93S WCI  20
MERRILL        CLOUDY    30  29  98 CALM        N/A
$$

WIZ029-030-035-036-043>047-181700-
CENTRAL WISCONSIN

CITY           SKY/WX    TMP DP  RH WIND       PRES   REMARKS
WAUSAU         CLOUDY    30  29  96 SW8       29.95R WCI  22
MOSINEE        CLOUDY    30  30 100 SW7       29.97R WCI  23
MARSHFIELD     CLOUDY    30  28  92 SW7       29.94F WCI  23
STEVENS POINT  CLOUDY    30  30 100 SW6       29.98S WCI  24
WAUPACA        CLOUDY    35  33  91 CALM      30.01S
WAUTOMA        CLOUDY    34  32  92 SW9       30.01F WCI  27
WISC RAPIDS    CLOUDY    31  30  96 SW8       30.00F WCI  23
CAMP DOUGLAS   MOSUNNY   34  28  80 S6        29.99F WCI  29
$$

WIZ011>013-019>022-031-037>040-048>050-181700-
NORTHEAST WISCONSIN

CITY           SKY/WX    TMP DP  RH WIND       PRES   REMARKS
ANTIGO         CLOUDY    29  29 100 SW9       29.94R WCI  20
SHAWANO        CLOUDY    34  34 100 SW8       29.99R WCI  27
OCONTO         NOT AVBL
STURGEON BAY   CLOUDY    32  32 100 SW15      29.99S FOG     WCI  22
GREEN BAY      CLOUDY    34  33  96 SW14      30.00S WCI  25
MANITOWOC      CLOUDY    34  33  96 MISG      30.02S
APPLETON       CLOUDY    32  32 100 SW12G18   29.99F WCI  23
CLINTONVILLE   CLOUDY    34  32  93 SW9       29.99S WCI  26
OSHKOSH        CLOUDY    32  31  96 SW9       30.01F WCI  24
$$

WIZ032>034-041-042-053>061-181700-
SOUTHWEST WISCONSIN

CITY           SKY/WX    TMP DP  RH WIND       PRES   REMARKS
LA CROSSE      CLOUDY    34  29  82 S21       29.99F WCI  22
SPARTA         CLOUDY    33  29  86 S7        29.99F WCI  27
VIROQUA        CLOUDY    30  30 100 S10       29.99F WCI  21
BOSCOBEL       CLOUDY    33  29  85 SW7       30.06F WCI  27
PRAIRIE DU CHI CLOUDY    32  29  89 SE3       30.06S
PLATTEVILLE    CLOUDY    31  31 100 S12       30.06S WCI  22
$$

WIZ056-057-062-063-064-067-068-181700-
SOUTH CENTRAL WISCONSIN

CITY           SKY/WX    TMP DP  RH WIND       PRES   REMARKS
REEDSBURG      CLOUDY    32  32 100 S9        30.03F WCI  24
BARABOO/DELLS  CLOUDY    32  32 100 SW8       30.02F WCI  25
LONE ROCK      CLOUDY    33  29  85 SW6       30.06F WCI  28
MINERAL POINT  CLOUDY    32  32 100 S8        30.04F FOG     WCI  25
MADISON        CLOUDY    32  29  88 S7        30.06F WCI  26
MIDDLETON      CLOUDY    33  33 100 S9        30.06S WCI  26
WATERTOWN      CLOUDY    32  32 100 SW7       30.06F WCI  26
MONROE         CLOUDY    32  32 100 S8        30.05F FOG     WCI  25
JANESVILLE     CLOUDY    34  34 100 SW7       30.09F WCI  28
$$

WIZ051-052-058>065-066-070>072-181700-
SOUTHEAST WISCONSIN

CITY           SKY/WX    TMP DP  RH WIND       PRES   REMARKS
MILWAUKEE      FOG       34  32  92 SW12      30.08S VSB 1   WCI  25
WAUKESHA       FOG       30  30 100 SW9       30.08F VSB 1   WCI  22
MILWAUKEE/TIMM CLOUDY    34  30  86 SW13      30.08S FOG     WCI  25
RACINE         CLOUDY    34  32  92 SW10      30.10S FOG     WCI  26
KENOSHA        CLOUDY    34  32  92 W13       30.09F FOG     WCI  25
FOND DU LAC    CLOUDY    33  30  88 SW10G20   30.03F WCI  25
SHEBOYGAN      CLOUDY    34  32  92 SW14      30.03F WCI  25
WEST BEND      CLOUDY    32  32 100 SW12G18   30.05S WCI  23
JUNEAU         CLOUDY    32  32  99 S13       30.07S WCI  22
$$

LSZ147-162-181700-
LAKE SUPERIOR

STATION/POSITION TIME  TEMP    WIND        PRES    WAVE
                       AIR SEA DIR/SP/G            HT/PER
                 (UTC) (F)     (DEG/KT/KT) (MB)    (FT/S)
DEVILS ISLAND    1600   33     230/ 20/ 24 1009.8F
PORT WING        1540   33     210/  9/ 14 1010.2F
SAXON HARBOR     1540   37     200/  8/ 18 1010.2R
$$

LMZ867-665-643>646-181700-
LAKE MICHIGAN

STATION/POSITION TIME  TEMP    WIND        PRES    WAVE
                       AIR SEA DIR/SP/G            HT/PER
                 (UTC) (F)     (DEG/KT/KT) (MB)    (FT/S)
NORTHPORT PIER   1600   32     230/  7/ 19 1014.6
SISTER BAY       1520   32     210/ 16/ 19   N/A
ALGOMA LAKESHORE 1454          240/ 10/ 13   N/A
KEWAUNEE LAKESHO 1554   33     250/  7/ 12 1015.7R
SHEBOYGAN LAKESH 1600   34     240/ 12/ 13 1017.7F
PORT WASHINGTON  1540   35     250/  9/ 15 1019.0S
MILWAUKEE LAKESH 1600   35     260/ 10/ 13   N/A
KENOSHA   LAKESH 1600   34     260/ 12/ 15 1019.0
$$

TC  - TEMPERATURE IN CELSIUS
VSB - VISIBILITY IN STATUTE MILES
WCI - WIND CHILL INDEX
HX  - HEAT INDEX





USA.gov is the U.S. government's official web portal to all federal, state and local government web resources and services.